Xingchi-1 02A

operational
NORAD ID: 58496 Int'l Des: 2023-187 Owner: TYSK Country: CN
LEOCIRCULARRETROGRADESSO

About Xingchi-1 02A

Description loading...

Live Position

Loading 3D Globe...

Upcoming Passes

Altitude History

Altitude vs Time

uPlot chart will show altitude changes over time

Two-Line Element Set

1 58496U 23187A 26062.21818185 .00002537 00000-0 31155-3 0 9998
2 58496 97.9306 145.7490 0012845 127.7248 232.5132 14.83900486121408
Epoch: Mar 3, 2026 • Age: 17 hours

Current Status

Altitude 621.6 km
Velocity 7.56 km/s
Sub-Earth Point 74.96°N, 59.61°W
Launch Date Dec 4, 2023
Age 2.2 years
Type other

Technical Details

Classification Payload
Mass 35.00 kg
Dry Mass 35.00 kg
Total Mass 35.00 kg
Length 0.30 m
Diameter 0.30 m
Span 1.00 m
Shape Box + 2 pan
Manufacturer WEINA
Bus Type MN35
Phase Status In Orbit
Owner/State TYSK/CN

Large Constellations

Loading constellations...